Location: Unspecified
(45.8167°N, 0.0000°E)
Time: 13:52:02
(UTC+00:00)

Cosmos 1190 Rocket - Visible Passes

Search period start: 04 April 2026 00:00
Search period end: 14 April 2026 00:00
Orbit: 752 x 776 km, 74.1° (Epoch: 29 March)

Date Brightness Start Highest point End Pass type
(mag) Time Alt. Az. Time Alt. Az. Time Alt. Az.
4 Apr 6.6 00:21:25 10° NNE 00:24:10 14° NE 00:24:52 14° NE visible
4 Apr 5.1 02:01:45 10° NNW 02:05:00 38° NNW 02:05:00 38° NNW visible
5 Apr 5.5 01:23:31 10° NNW 01:26:54 34° NNE 01:26:54 34° NNE visible
5 Apr 6.1 03:06:03 10° NW 03:07:02 14° NW 03:07:02 14° NW visible
6 Apr 5.9 00:45:27 10° N 00:48:52 27° NNE 00:48:52 27° NNE visible
6 Apr 5.8 02:27:13 10° NW 02:29:01 21° NW 02:29:01 21° NW visible
7 Apr 6.3 00:07:37 10° N 00:10:53 19° NE 00:10:53 19° NE visible
7 Apr 5.6 01:48:40 10° NNW 01:51:02 27° NNW 01:51:02 27° NNW visible
7 Apr 6.6 23:30:17 10° NNE 23:32:34 13° NE 23:32:57 13° NE visible
8 Apr 5.6 01:10:18 10° NNW 01:13:06 31° N 01:13:06 31° N visible
9 Apr 5.7 00:32:06 10° N 00:35:12 30° NNE 00:35:12 30° NNE visible
9 Apr 6.2 02:14:25 10° NW 02:15:20 14° NW 02:15:20 14° NW visible
9 Apr 6.0 23:54:04 10° N 23:57:19 24° NE 23:57:19 24° NE visible
10 Apr 5.9 01:35:40 10° NNW 01:37:28 21° NW 01:37:28 21° NW visible
10 Apr 6.2 23:16:19 10° N 23:19:28 17° NE 23:19:28 17° NE visible
11 Apr 5.7 00:57:10 10° NNW 00:59:38 28° NNW 00:59:38 28° NNW visible
11 Apr 6.5 22:39:17 10° NNE 22:40:57 11° NE 22:41:39 11° NE visible
12 Apr 5.6 00:18:51 10° NNW 00:21:48 33° N 00:21:48 33° N visible
12 Apr 6.5 02:01:53 10° NW 02:01:58 10° NW 02:01:58 10° NW visible
12 Apr 5.6 23:40:41 10° N 23:44:01 30° NNE 23:44:01 30° NNE visible
13 Apr 6.2 01:22:48 10° NW 01:24:10 17° NW 01:24:10 17° NW visible
13 Apr 5.9 23:02:43 10° N 23:06:14 23° NE 23:06:14 23° NE visible
